IZ1GCT Weather Reports


Display with metric or nautical units.
time (UTC)temp
F
wind
direction
speed
MPH
gust
MPH
rain 1hr
in
rain 24hr
in
rain mn
in
humidity
%
barometer
mb
20260507191539 61 141 3.0 6.0 0.00 0.00 0.00 60 1016.2
20260507191040 61 122 2.0 3.0 0.00 0.00 0.00 61 1016.2
20260507190539 61 141 5.0 6.0 0.00 0.00 0.00 61 1016.2
20260507190040 61 158 5.0 5.0 0.00 0.00 0.00 61 1016.0
20260507185540 61 158 6.0 8.0 0.00 0.00 0.00 60 1015.8
20260507185040 61 135 2.0 6.0 0.00 0.00 0.00 60 1015.9
20260507184539 61 158 5.0 8.0 0.00 0.00 0.00 60 1015.8
20260507184039 61 142 3.0 7.0 0.00 0.00 0.00 61 1015.7
20260507183540 62 135 2.0 3.0 0.00 0.00 0.00 61 1015.7
20260507183040 62 158 1.0 2.0 0.00 0.00 0.00 60 1015.6
20260507182539 62 158 3.0 5.0 0.00 0.00 0.00 59 1015.7
20260507182039 62 142 5.0 6.0 0.00 0.00 0.00 60 1015.5
20260507181540 63 150 2.0 3.0 0.00 0.00 0.00 60 1015.5
20260507181039 63 135 3.0 3.0 0.00 0.00 0.00 57 1015.5
20260507180539 64 146 3.0 6.0 0.00 0.00 0.00 52 1015.5
20260507180040 64 135 3.0 5.0 0.00 0.00 0.00 51 1015.3
20260507175540 64 118 3.0 6.0 0.00 0.00 0.00 50 1015.3
20260507175039 65 142 2.0 3.0 0.00 0.00 0.00 50 1015.4
20260507174540 65 135 3.0 6.0 0.00 0.00 0.00 50 1015.2
20260507174040 65 116 2.0 5.0 0.00 0.00 0.00 50 1015.2
20260507173539 65 135 2.0 3.0 0.00 0.00 0.00 49 1015.1
20260507173039 65 156 6.0 8.0 0.00 0.00 0.00 49 1015.2
20260507172540 66 135 5.0 7.0 0.00 0.00 0.00 48 1015.1
20260507172039 66 119 3.0 5.0 0.00 0.00 0.00 48 1015.2
20260507171539 66 152 7.0 8.0 0.00 0.00 0.00 48 1015.0
20260507171040 66 124 7.0 10.0 0.00 0.00 0.00 48 1015.0
20260507170540 67 155 8.0 12.0 0.00 0.00 0.00 47 1014.9
20260507170039 67 158 3.0 5.0 0.00 0.00 0.00 47 1014.8
20260507165539 68 135 3.0 6.0 0.00 0.00 0.00 48 1014.9
20260507165040 67 114 3.0 10.0 0.00 0.00 0.00 48 1014.9
20260507164539 68 126 8.0 10.0 0.00 0.00 0.00 46 1014.9
20260507164039 68 135 7.0 13.0 0.00 0.00 0.00 46 1014.8
20260507163540 68 142 6.0 9.0 0.00 0.00 0.00 45 1014.7
20260507163039 68 145 8.0 13.0 0.00 0.00 0.00 44 1014.7
20260507162539 69 118 8.0 10.0 0.00 0.00 0.00 43 1014.9
20260507162040 70 135 6.0 8.0 0.00 0.00 0.00 43 1014.7
20260507161540 70 135 8.0 13.0 0.00 0.00 0.00 44 1014.8
20260507161039 70 112 6.0 10.0 0.00 0.00 0.00 44 1014.6
20260507160540 70 121 8.0 14.0 0.00 0.00 0.00 45 1014.7
20260507155542 68 112 8.0 13.0 0.00 0.00 0.00 45 1014.6
20260507155043 69 121 8.0 10.0 0.00 0.00 0.00 44 1014.5
20260507154543 70 112 5.0 10.0 0.00 0.00 0.00 43 1014.5
20260507154042 69 152 9.0 12.0 0.00 0.00 0.00 43 1014.6
20260507153543 69 140 10.0 15.0 0.00 0.00 0.00 42 1014.6
20260507153043 69 112 7.0 10.0 0.00 0.00 0.00 43 1014.6
20260507152543 69 142 8.0 13.0 0.00 0.00 0.00 44 1014.6
20260507152042 70 127 8.0 13.0 0.00 0.00 0.00 42 1014.5
20260507151542 70 153 6.0 15.0 0.00 0.00 0.00 44 1014.5
20260507151043 69 112 8.0 13.0 0.00 0.00 0.00 44 1014.6
20260507150542 70 148 9.0 13.0 0.00 0.00 0.00 42 1014.6
20260507150042 70 112 6.0 8.0 0.00 0.00 0.00 44 1014.6
20260507145543 70 140 7.0 10.0 0.00 0.00 0.00 44 1014.7
20260507145042 69 135 9.0 17.0 0.00 0.00 0.00 43 1014.8
20260507144542 70 158 8.0 10.0 0.00 0.00 0.00 44 1014.7
20260507144041 69 120 8.0 13.0 0.00 0.00 0.00 46 1014.8
20260507143543 68 112 13.0 16.0 0.00 0.00 0.00 45 1014.8
20260507143042 69 112 12.0 14.0 0.00 0.00 0.00 45 1014.7
20260507142542 69 112 8.0 12.0 0.00 0.00 0.00 45 1014.8
20260507142042 69 144 13.0 16.0 0.00 0.00 0.00 46 1014.7
20260507141543 69 126 9.0 10.0 0.00 0.00 0.00 45 1014.7
20260507141042 69 133 9.0 13.0 0.00 0.00 0.00 45 1014.7
20260507140543 69 112 12.0 13.0 0.00 0.00 0.00 44 1014.9
20260507140042 68 135 13.0 17.0 0.00 0.00 0.00 46 1014.8
20260507135542 68 112 10.0 14.0 0.00 0.00 0.00 45 1014.9
20260507135043 69 122 13.0 16.0 0.00 0.00 0.00 46 1014.9
20260507134541 68 131 8.0 16.0 0.00 0.00 0.00 46 1014.8
20260507134043 69 129 10.0 13.0 0.00 0.00 0.00 45 1014.9
20260507133541 69 112 8.0 13.0 0.00 0.00 0.00 45 1014.9
20260507133043 68 152 9.0 13.0 0.00 0.00 0.00 44 1015.0
20260507132542 69 112 8.0 13.0 0.00 0.00 0.00 43 1014.9
20260507132041 69 112 8.0 13.0 0.00 0.00 0.00 43 1014.9
20260507131543 70 121 13.0 17.0 0.00 0.00 0.00 43 1015.1
20260507131042 69 120 7.0 13.0 0.00 0.00 0.00 42 1014.9
20260507130542 70 156 8.0 13.0 0.00 0.00 0.00 46 1015.0
20260507130043 69 112 6.0 8.0 0.00 0.00 0.00 46 1015.1
20260507125542 69 127 13.0 16.0 0.00 0.00 0.00 43 1015.1
20260507125042 69 120 7.0 10.0 0.00 0.00 0.00 43 1015.2
20260507124543 68 125 8.0 10.0 0.00 0.00 0.00 44 1015.1
20260507124042 69 135 7.0 10.0 0.00 0.00 0.00 44 1015.2
20260507123542 68 129 6.0 8.0 0.00 0.00 0.00 45 1015.3
20260507123043 69 122 7.0 10.0 0.00 0.00 0.00 44 1015.2
20260507122542 68 135 7.0 10.0 0.00 0.00 0.00 47 1015.3
20260507122041 68 142 10.0 13.0 0.00 0.00 0.00 45 1015.3
20260507121543 67 121 6.0 8.0 0.00 0.00 0.00 49 1015.3
20260507121042 67 154 7.0 10.0 0.00 0.00 0.00 46 1015.3
20260507120542 67 123 10.0 17.0 0.00 0.00 0.00 49 1015.3
20260507120043 68 135 13.0 17.0 0.00 0.00 0.00 47 1015.4
20260507115542 69 135 6.0 13.0 0.00 0.00 0.00 50 1015.4
20260507115042 67 120 10.0 16.0 0.00 0.00 0.00 48 1015.5
20260507114541 67 112 9.0 14.0 0.00 0.00 0.00 47 1015.5
20260507114043 68 112 6.0 9.0 0.00 0.00 0.00 43 1015.4
20260507113543 68 119 10.0 15.0 0.00 0.00 0.00 45 1015.5
20260507113041 68 117 6.0 8.0 0.00 0.00 0.00 47 1015.4
20260507112543 68 112 6.0 9.0 0.00 0.00 0.00 42 1015.6
20260507112042 67 154 10.0 15.0 0.00 0.00 0.00 46 1015.7
20260507111541 68 135 9.0 14.0 0.00 0.00 0.00 44 1015.7
20260507111042 67 112 6.0 9.0 0.00 0.00 0.00 44 1015.6
20260507110542 68 134 9.0 13.0 0.00 0.00 0.00 41 1015.8
20260507110043 68 112 9.0 13.0 0.00 0.00 0.00 43 1015.8
20260507105543 67 132 5.0 7.0 0.00 0.00 0.00 41 1015.8
20260507105042 67 135 6.0 9.0 0.00 0.00 0.00 41 1015.6
20260507104541 66 112 12.0 17.0 0.00 0.00 0.00 41 1015.7
20260507104042 66 119 8.0 13.0 0.00 0.00 0.00 43 1015.8
20260507103542 66 128 10.0 16.0 0.00 0.00 0.00 42 1015.8
20260507103041 67 135 6.0 8.0 0.00 0.00 0.00 43 1015.8
20260507102542 67 134 5.0 10.0 0.00 0.00 0.00 43 1015.8
20260507102041 67 131 7.0 9.0 0.00 0.00 0.00 43 1015.9
20260507101543 67 125 7.0 9.0 0.00 0.00 0.00 41 1015.8
20260507101042 66 135 7.0 12.0 0.00 0.00 0.00 43 1015.9
20260507100542 66 112 7.0 10.0 0.00 0.00 0.00 44 1016.0
20260507100043 66 112 6.0 8.0 0.00 0.00 0.00 41 1016.0
20260507095543 66 129 6.0 9.0 0.00 0.00 0.00 40 1015.9
20260507095042 66 126 6.0 8.0 0.00 0.00 0.00 41 1015.9
20260507094543 66 134 7.0 8.0 0.00 0.00 0.00 37 1015.9
20260507094042 66 129 5.0 7.0 0.00 0.00 0.00 42 1016.0
20260507093542 65 126 7.0 12.0 0.00 0.00 0.00 41 1016.0
20260507093041 65 129 6.0 9.0 0.00 0.00 0.00 40 1016.0
20260507092543 66 135 6.0 8.0 0.00 0.00 0.00 40 1016.0
20260507092042 65 152 2.0 5.0 0.00 0.00 0.00 44 1016.0
20260507091543 65 120 3.0 8.0 0.00 0.00 0.00 43 1016.0
20260507091042 63 135 2.0 3.0 0.00 0.00 0.00 48 1016.1
20260507090541 63 135 6.0 8.0 0.00 0.00 0.00 52 1016.1
20260507090043 64 135 6.0 6.0 0.00 0.00 0.00 50 1016.0
20260507085542 63 143 5.0 7.0 0.00 0.00 0.00 54 1016.1
20260507085042 63 119 6.0 8.0 0.00 0.00 0.00 55 1016.1
20260507084541 63 120 6.0 8.0 0.00 0.00 0.00 56 1016.2
20260507084043 62 135 6.0 8.0 0.00 0.00 0.00 56 1016.1
20260507083542 62 132 2.0 8.0 0.00 0.00 0.00 56 1016.1
20260507083042 62 144 5.0 7.0 0.00 0.00 0.00 55 1016.2
20260507082543 62 152 6.0 7.0 0.00 0.00 0.00 54 1016.1
20260507082042 63 141 3.0 5.0 0.00 0.00 0.00 53 1016.2
20260507081541 62 126 5.0 6.0 0.00 0.00 0.00 53 1016.3
20260507081043 62 120 6.0 7.0 0.00 0.00 0.00 52 1016.2
20260507080542 63 135 5.0 7.0 0.00 0.00 0.00 51 1016.2
20260507080042 62 135 1.0 2.0 0.00 0.00 0.00 50 1016.2
20260507075541 62 117 5.0 7.0 0.00 0.00 0.00 48 1016.2
20260507075043 64 112 2.0 3.0 0.00 0.00 0.00 41 1016.2
20260507074542 63 135 2.0 5.0 0.00 0.00 0.00 41 1016.3
20260507074042 62 121 2.0 6.0 0.00 0.01 0.00 40 1016.2
20260507073542 63 140 3.0 6.0 0.00 0.01 0.00 42 1016.3
20260507073041 62 135 1.0 3.0 0.00 0.01 0.00 43 1016.2
20260507072541 62 135 1.0 2.0 0.00 0.01 0.00 45 1016.2
20260507072042 61 144 2.0 5.0 0.00 0.01 0.00 43 1016.2
20260507071543 62 116 3.0 5.0 0.00 0.01 0.00 43 1016.2
20260507071042 62 146 2.0 3.0 0.00 0.01 0.00 44 1016.1
20260507070541 62 130 1.0 3.0 0.00 0.01 0.00 43 1016.1
20260507070043 63 135 2.0 3.0 0.00 0.01 0.00 44 1016.1
20260507065542 63 354 1.0 3.0 0.00 0.01 0.00 48 1016.1
20260507065043 61 321 1.0 2.0 0.00 0.01 0.00 50 1016.1
20260507064542 60 315 2.0 3.0 0.00 0.01 0.00 50 1016.1
20260507064041 60 270 1.0 2.0 0.00 0.01 0.00 51 1016.0
20260507063543 60 313 3.0 5.0 0.00 0.01 0.00 48 1016.0
20260507063042 60 250 0.0 0.0 0.00 0.01 0.00 52 1016.0
20260507062541 59 225 0.0 1.0 0.00 0.01 0.00 54 1015.9
20260507062043 57 236 0.0 1.0 0.00 0.01 0.00 54 1015.9
20260507061542 55 270 2.0 3.0 0.00 0.01 0.00 56 1015.9
20260507061041 54 267 5.0 6.0 0.00 0.01 0.00 58 1015.8
20260507060543 56 270 5.0 6.0 0.00 0.02 0.00 53 1015.9
20260507060041 58 270 2.0 3.0 0.00 0.02 0.00 56 1015.8
20260507055542 59 317 1.0 2.0 0.00 0.02 0.00 60 1016.0
20260507055042 57 225 0.0 0.0 0.00 0.02 0.00 63 1015.8
20260507054541 55 315 0.0 0.0 0.00 0.02 0.00 66 1015.8
20260507054043 53 315 1.0 2.0 0.00 0.02 0.00 74 1015.8
20260507053542 50 180 0.0 1.0 0.00 0.02 0.00 84 1015.8
20260507053042 47 180 0.0 1.0 0.00 0.02 0.00 88 1015.7
20260507052541 44 180 0.0 0.0 0.00 0.02 0.00 92 1015.6
20260507052042 43 180 1.0 2.0 0.00 0.04 0.00 91 1015.6
20260507051542 42 225 0.0 0.0 0.00 0.04 0.00 91 1015.5
20260507051041 42 225 0.0 0.0 0.00 0.05 0.00 91 1015.4
20260507050543 42 45 1.0 2.0 0.00 0.06 0.00 90 1015.4
20260507050042 41 180 0.0 1.0 0.00 0.07 0.00 90 1015.4
20260507045541 41 180 0.0 0.0 0.00 0.08 0.00 90 1015.3
20260507045041 41 180 1.0 1.0 0.00 0.09 0.00 89 1015.2
20260507044542 42 180 0.0 1.0 0.00 0.09 0.00 89 1015.1
20260507044042 42 180 0.0 0.0 0.00 0.11 0.00 89 1015.2
20260507043541 42 152 1.0 2.0 0.00 0.12 0.00 88 1015.0
20260507043043 42 315 0.0 0.0 0.00 0.13 0.00 88 1015.0
20260507042542 42 135 2.0 3.0 0.00 0.14 0.00 88 1014.9
20260507042041 42 169 3.0 6.0 0.00 0.15 0.00 87 1015.0
20260507041543 42 158 3.0 6.0 0.00 0.15 0.00 86 1014.8
20260507041042 43 266 1.0 2.0 0.00 0.17 0.00 86 1014.9
20260507040542 43 135 2.0 3.0 0.00 0.18 0.00 86 1014.9
20260507035547 43 138 3.0 3.0 0.00 0.18 0.00 85 1014.8
20260507035046 43 180 0.0 1.0 0.00 0.18 0.00 85 1014.8
20260507034548 44 135 0.0 0.0 0.00 0.18 0.00 85 1014.9
20260507034047 43 173 0.0 5.0 0.00 0.18 0.00 85 1014.8
20260507033547 44 229 0.0 1.0 0.00 0.18 0.00 85 1014.9
20260507033046 44 268 0.0 1.0 0.00 0.18 0.00 85 1014.9
20260507032548 44 180 1.0 3.0 0.00 0.18 0.00 86 1014.9
20260507032047 44 180 1.0 2.0 0.00 0.18 0.00 86 1014.9
20260507031548 44 193 0.0 1.0 0.00 0.19 0.00 86 1014.9
20260507031047 44 246 0.0 1.0 0.00 0.19 0.00 86 1015.1
20260507030547 44 180 2.0 3.0 0.00 0.19 0.00 85 1015.0
20260507030046 44 135 2.0 3.0 0.00 0.19 0.00 84 1015.1
20260507025547 44 180 0.0 1.0 0.00 0.19 0.00 84 1015.1
20260507025047 44 295 1.0 2.0 0.00 0.19 0.00 84 1015.2
20260507024546 45 158 0.0 0.0 0.00 0.19 0.00 85 1015.2
20260507024046 45 158 0.0 1.0 0.00 0.19 0.00 87 1015.1
20260507023546 46 180 0.0 1.0 0.00 0.19 0.00 84 1015.2
20260507023046 45 270 3.0 7.0 0.00 0.19 0.00 91 1015.1
20260507022547 43 192 1.0 2.0 0.00 0.19 0.00 92 1015.2
20260507022047 43 135 2.0 3.0 0.00 0.19 0.00 92 1015.1
20260507021546 43 192 1.0 2.0 0.00 0.19 0.00 92 1015.1
20260507021048 42 180 1.0 2.0 0.00 0.19 0.00 91 1015.1
20260507020547 42 214 1.0 2.0 0.00 0.19 0.00 91 1014.9
20260507020046 42 180 0.0 0.0 0.00 0.19 0.00 91 1015.0
20260507015547 42 135 0.0 1.0 0.00 0.19 0.00 91 1015.0
20260507015046 42 135 1.0 1.0 0.00 0.19 0.00 90 1014.9
20260507014548 42 135 0.0 0.0 0.00 0.19 0.00 90 1014.8
20260507014047 43 98 1.0 2.0 0.00 0.19 0.00 90 1014.9
20260507013548 42 225 1.0 2.0 0.00 0.19 0.00 90 1014.8
20260507013047 42 180 0.0 1.0 0.00 0.19 0.00 90 1014.8
20260507012548 42 270 0.0 0.0 0.00 0.19 0.00 90 1014.6
20260507012048 43 22 0.0 1.0 0.00 0.19 0.00 90 1014.7
20260507011549 43 135 1.0 3.0 0.00 0.19 0.00 90 1014.5
20260507011048 43 212 1.0 1.0 0.00 0.19 0.00 90 1014.5
20260507010549 43 31 1.0 2.0 0.00 0.19 0.00 90 1014.5
20260507010047 43 135 1.0 2.0 0.00 0.19 0.00 90 1014.4
20260507005549 43 180 0.0 1.0 0.00 0.19 0.00 90 1014.4
20260507005048 44 0 0.0 1.0 0.00 0.19 0.00 90 1014.3
20260507004548 44 159 3.0 6.0 0.00 0.19 0.00 90 1014.3
20260507004048 44 135 1.0 1.0 0.00 0.19 0.00 89 1014.3
20260507003547 44 186 1.0 3.0 0.00 0.19 0.00 89 1014.3
20260507003047 44 135 0.0 0.0 0.00 0.19 0.00 89 1014.2
20260507002548 44 135 1.0 2.0 0.00 0.19 0.00 89 1014.2
20260507002048 44 225 0.0 1.0 0.00 0.19 0.00 89 1014.2
20260507001547 44 147 3.0 3.0 0.00 0.19 0.00 89 1014.2
20260507001048 44 135 0.0 2.0 0.00 0.19 0.00 89 1014.3
20260507000548 45 135 5.0 6.0 0.00 0.19 0.00 89 1014.3
20260507000047 45 135 2.0 3.0 0.00 0.19 0.00 89 1014.2
20260506235547 44 135 0.0 1.0 0.00 0.19 0.00 89 1014.3
20260506235047 44 158 2.0 5.0 0.00 0.19 0.00 89 1014.3
20260506234547 45 135 0.0 1.0 0.00 0.19 0.00 89 1014.2
20260506234048 45 135 0.0 2.0 0.00 0.19 0.00 90 1014.1
20260506233548 45 135 0.0 0.0 0.00 0.19 0.00 90 1014.1
20260506233047 45 135 3.0 3.0 0.00 0.19 0.00 90 1014.1
20260506232547 45 135 1.0 2.0 0.00 0.19 0.00 89 1014.3
20260506232047 45 158 1.0 2.0 0.00 0.19 0.00 88 1014.2
20260506231547 45 158 1.0 3.0 0.00 0.19 0.00 87 1014.2
20260506231048 46 143 0.0 1.0 0.00 0.19 0.00 81 1014.3
20260506230548 46 135 1.0 3.0 0.00 0.19 0.00 81 1014.4
20260506230047 46 135 2.0 3.0 0.00 0.19 0.00 80 1014.3
20260506225548 46 135 0.0 1.0 0.00 0.19 0.00 80 1014.3
20260506225047 47 135 0.0 1.0 0.00 0.19 0.00 80 1014.4
20260506224547 47 143 2.0 3.0 0.00 0.19 0.00 80 1014.3
20260506224048 47 158 3.0 6.0 0.00 0.19 0.00 80 1014.3
20260506223548 47 158 0.0 1.0 0.00 0.19 0.00 80 1014.3
20260506223047 47 152 0.0 1.0 0.00 0.19 0.00 80 1014.4
20260506222548 47 152 2.0 3.0 0.00 0.19 0.00 77 1014.2
20260506222048 47 135 0.0 1.0 0.00 0.19 0.00 76 1014.0
20260506221547 48 135 0.0 0.0 0.00 0.19 0.00 75 1014.2
20260506221047 48 135 1.0 2.0 0.00 0.19 0.00 76 1014.1
20260506220548 48 137 3.0 6.0 0.00 0.19 0.00 75 1014.1
20260506220047 48 158 2.0 3.0 0.00 0.19 0.00 74 1014.1
20260506215548 48 158 1.0 1.0 0.00 0.19 0.19 74 1014.0
20260506215048 49 140 0.0 1.0 0.00 0.19 0.19 73 1014.0
20260506214547 49 135 2.0 3.0 0.00 0.19 0.19 72 1014.0
20260506214047 50 158 2.0 3.0 0.00 0.19 0.19 72 1014.0
20260506213548 50 135 0.0 1.0 0.00 0.19 0.19 71 1014.0
20260506213048 50 135 2.0 3.0 0.00 0.19 0.19 72 1013.9
20260506212547 50 136 2.0 3.0 0.00 0.19 0.19 71 1014.0
20260506212047 50 153 2.0 3.0 0.00 0.19 0.19 70 1013.8
20260506211548 51 135 2.0 3.0 0.00 0.19 0.19 70 1013.8
20260506211047 51 155 2.0 3.0 0.00 0.19 0.19 67 1013.9
20260506210548 52 146 3.0 5.0 0.00 0.19 0.19 67 1013.9
20260506210048 52 135 2.0 3.0 0.00 0.19 0.19 66 1013.8
20260506205547 53 135 0.0 0.0 0.00 0.19 0.19 64 1013.9
20260506205047 53 135 0.0 1.0 0.00 0.19 0.19 63 1013.8
20260506204548 54 154 2.0 6.0 0.00 0.19 0.19 62 1013.7
20260506204047 55 135 0.0 2.0 0.00 0.19 0.19 58 1013.5
20260506203547 56 112 0.0 0.0 0.00 0.19 0.19 53 1013.5
20260506203047 57 112 1.0 2.0 0.00 0.19 0.19 52 1013.2
20260506202548 57 129 1.0 2.0 0.00 0.19 0.19 50 1013.3
20260506202047 57 135 7.0 8.0 0.00 0.19 0.19 47 1013.2
20260506201547 58 158 2.0 3.0 0.00 0.19 0.19 45 1012.9
20260506201048 59 135 3.0 5.0 0.00 0.19 0.19 44 1012.9
20260506200548 58 135 7.0 9.0 0.00 0.19 0.19 45 1012.7
20260506200047 58 135 5.0 6.0 0.00 0.19 0.19 45 1012.6
20260506195548 58 118 2.0 3.0 0.00 0.19 0.19 45 1012.6
20260506195048 59 158 2.0 3.0 0.00 0.19 0.19 42 1012.5
20260506194547 59 147 2.0 3.0 0.00 0.19 0.19 42 1012.4
20260506194047 60 152 1.0 2.0 0.00 0.19 0.19 42 1012.3
20260506193547 60 135 5.0 10.0 0.00 0.19 0.19 41 1012.1
20260506193048 60 135 3.0 7.0 0.00 0.19 0.19 41 1012.0
20260506192548 60 135 6.0 8.0 0.00 0.19 0.19 41 1011.9
20260506192047 60 135 5.0 6.0 0.00 0.19 0.19 42 1011.8